SDA801 NZAP-NZWN

Flight info

Callsign SDA801
Flight time 0h 59m
Altitude 18000
Route H280 DCT TARUA H364 PM V242 DOGAD
Aircraft PC12/L-SDFGRWY/S

Departure

Time 2026-04-26 07:04
Airport Taupo Airport (NZAP)

Arrival

Time 2026-04-26 08:03
Airport Wellington International Airport (NZWN)
Time Latitude Longitude Altitude Speed Heading
2026-04-26 06:43 -38.73969 176.08341 1344 ft 0 kts 324°
2026-04-26 06:59 -38.73967 176.08340 1340 ft 3 kts 333°
2026-04-26 07:00 -38.73971 176.08391 1345 ft 11 kts 115°
2026-04-26 07:00 -38.73979 176.08420 1345 ft 0 kts 105°
2026-04-26 07:00 -38.73990 176.08476 1345 ft 14 kts 101°
2026-04-26 07:01 -38.73949 176.08536 1347 ft 12 kts 14°
2026-04-26 07:01 -38.73856 176.08567 1348 ft 13 kts 15°
2026-04-26 07:01 -38.73750 176.08603 1353 ft 18 kts 15°
2026-04-26 07:01 -38.73616 176.08649 1353 ft 22 kts 14°
2026-04-26 07:02 -38.73528 176.08677 1352 ft 15 kts
2026-04-26 07:02 -38.73488 176.08695 1352 ft 4 kts 153°
2026-04-26 07:02 -38.73508 176.08685 1351 ft 0 kts 194°
2026-04-26 07:03 -38.73562 176.08666 1351 ft 29 kts 195°
2026-04-26 07:03 -38.73929 176.08543 1347 ft 77 kts 195°
2026-04-26 07:03 -38.74551 176.08334 1432 ft 99 kts 196°
2026-04-26 07:03 -38.75254 176.08088 1668 ft 111 kts 201°
2026-04-26 07:04 -38.76026 176.07773 1917 ft 121 kts 203°
2026-04-26 07:04 -38.76612 176.06988 2141 ft 134 kts 251°
2026-04-26 07:04 -38.76606 176.05704 2408 ft 156 kts 279°
2026-04-26 07:04 -38.76556 176.04236 2692 ft 175 kts 263°
2026-04-26 07:05 -38.76882 176.02676 2966 ft 188 kts 246°
2026-04-26 07:05 -38.77562 176.01189 3242 ft 198 kts 236°
2026-04-26 07:05 -38.78365 175.99715 3516 ft 204 kts 236°
2026-04-26 07:05 -38.78893 175.98020 3791 ft 209 kts 261°
2026-04-26 07:06 -38.78704 175.96173 4142 ft 214 kts 288°
2026-04-26 07:06 -38.77832 175.94608 4494 ft 222 kts 315°
2026-04-26 07:06 -38.76454 175.93687 4848 ft 228 kts 342°
2026-04-26 07:06 -38.74862 175.93636 5204 ft 233 kts 10°
2026-04-26 07:07 -38.73389 175.94487 5550 ft 234 kts 37°
2026-04-26 07:07 -38.72349 175.96063 5913 ft 233 kts 64°
2026-04-26 07:07 -38.71949 175.98035 6280 ft 229 kts 91°
2026-04-26 07:07 -38.72265 175.99993 6643 ft 225 kts 118°
2026-04-26 07:08 -38.73058 176.01701 6999 ft 223 kts 125°
2026-04-26 07:08 -38.73776 176.03470 7378 ft 225 kts 115°
2026-04-26 07:08 -38.74303 176.05345 7784 ft 222 kts 116°
2026-04-26 07:08 -38.75203 176.06888 8186 ft 215 kts 144°
2026-04-26 07:09 -38.76531 176.07688 8596 ft 211 kts 170°
2026-04-26 07:09 -38.77979 176.07876 9022 ft 209 kts 178°
2026-04-26 07:09 -38.79430 176.08032 9464 ft 210 kts 177°
2026-04-26 07:09 -38.80864 176.08206 9902 ft 210 kts 177°
2026-04-26 07:10 -38.85244 176.08728 11116 ft 211 kts 177°
2026-04-26 07:11 -38.88171 176.09076 11950 ft 211 kts 178°
2026-04-26 07:11 -38.89635 176.09251 12373 ft 212 kts 178°
2026-04-26 07:11 -38.91100 176.09426 12806 ft 211 kts 178°
2026-04-26 07:11 -38.92560 176.09600 13242 ft 210 kts 178°
2026-04-26 07:12 -38.94018 176.09775 13685 ft 210 kts 178°
2026-04-26 07:12 -38.95474 176.09948 14109 ft 210 kts 178°
2026-04-26 07:12 -38.96926 176.10122 14508 ft 209 kts 179°
2026-04-26 07:12 -38.98369 176.10294 14907 ft 208 kts 179°
2026-04-26 07:13 -38.99804 176.10467 15322 ft 206 kts 179°
2026-04-26 07:13 -39.01226 176.10636 15732 ft 205 kts 179°
2026-04-26 07:13 -39.02636 176.10807 16145 ft 202 kts 179°
2026-04-26 07:13 -39.04033 176.10973 16573 ft 201 kts 180°
2026-04-26 07:14 -39.05419 176.11138 17002 ft 199 kts 180°
2026-04-26 07:14 -39.06778 176.11303 17433 ft 196 kts 180°
2026-04-26 07:14 -39.08123 176.11461 17877 ft 192 kts 180°
2026-04-26 07:14 -39.09457 176.11626 18139 ft 197 kts 180°
2026-04-26 07:15 -39.10874 176.11789 18146 ft 211 kts 180°
2026-04-26 07:15 -39.12372 176.11965 18150 ft 221 kts 179°
2026-04-26 07:15 -39.13931 176.12154 18152 ft 230 kts 180°
2026-04-26 07:15 -39.15549 176.12350 18153 ft 237 kts 179°
2026-04-26 07:16 -39.17204 176.12550 18150 ft 241 kts 179°
2026-04-26 07:16 -39.18868 176.12750 18151 ft 246 kts 179°
2026-04-26 07:16 -39.20609 176.12959 18153 ft 249 kts 179°
2026-04-26 07:16 -39.22319 176.13166 18154 ft 251 kts 179°
2026-04-26 07:17 -39.24068 176.13377 18150 ft 253 kts 179°
2026-04-26 07:17 -39.25827 176.13588 18147 ft 254 kts 179°
2026-04-26 07:17 -39.27590 176.13802 18154 ft 255 kts 180°
2026-04-26 07:17 -39.29360 176.14015 18150 ft 256 kts 180°
2026-04-26 07:18 -39.31135 176.14231 18149 ft 256 kts 180°
2026-04-26 07:18 -39.32915 176.14445 18149 ft 257 kts 180°
2026-04-26 07:18 -39.34696 176.14658 18148 ft 257 kts 180°
2026-04-26 07:18 -39.36477 176.14876 18147 ft 257 kts 180°
2026-04-26 07:19 -39.38261 176.15090 18146 ft 258 kts 180°
2026-04-26 07:19 -39.40045 176.15307 18147 ft 258 kts 180°
2026-04-26 07:19 -39.41830 176.15522 18149 ft 258 kts 180°
2026-04-26 07:19 -39.43618 176.15739 18146 ft 258 kts 180°
2026-04-26 07:20 -39.45395 176.15818 18136 ft 252 kts 191°
2026-04-26 07:20 -39.47035 176.15142 18133 ft 246 kts 208°
2026-04-26 07:20 -39.48571 176.14155 18130 ft 246 kts 209°
2026-04-26 07:20 -39.50120 176.13198 18134 ft 248 kts 207°
2026-04-26 07:21 -39.51691 176.12276 18136 ft 248 kts 207°
2026-04-26 07:21 -39.53260 176.11350 18139 ft 248 kts 207°
2026-04-26 07:21 -39.54827 176.10413 18139 ft 248 kts 207°
2026-04-26 07:21 -39.56395 176.09476 18137 ft 249 kts 208°
2026-04-26 07:22 -39.57965 176.08538 18142 ft 248 kts 208°
2026-04-26 07:22 -39.59537 176.07600 18139 ft 248 kts 208°
2026-04-26 07:22 -39.61108 176.06661 18139 ft 249 kts 208°
2026-04-26 07:22 -39.62681 176.05721 18141 ft 249 kts 208°
2026-04-26 07:23 -39.64257 176.04778 18142 ft 249 kts 208°
2026-04-26 07:23 -39.65833 176.03836 18142 ft 250 kts 208°
2026-04-26 07:23 -39.67409 176.02890 18145 ft 249 kts 208°
2026-04-26 07:23 -39.68984 176.01948 18146 ft 249 kts 208°
2026-04-26 07:24 -39.70559 176.01005 18140 ft 249 kts 208°
2026-04-26 07:24 -39.72132 176.00060 18139 ft 249 kts 208°
2026-04-26 07:24 -39.73704 175.99117 18147 ft 249 kts 208°
2026-04-26 07:24 -39.75277 175.98175 18146 ft 249 kts 208°
2026-04-26 07:25 -39.76851 175.97228 18139 ft 249 kts 208°
2026-04-26 07:25 -39.78428 175.96280 18139 ft 250 kts 208°
2026-04-26 07:25 -39.80004 175.95332 18142 ft 250 kts 208°
2026-04-26 07:25 -39.81581 175.94385 18142 ft 250 kts 208°
2026-04-26 07:26 -39.83156 175.93437 18140 ft 249 kts 208°
2026-04-26 07:26 -39.84710 175.92501 18138 ft 249 kts 208°
2026-04-26 07:26 -39.86303 175.91540 18140 ft 249 kts 208°
2026-04-26 07:26 -39.87857 175.90605 18135 ft 249 kts 208°
2026-04-26 07:27 -39.89448 175.89647 18139 ft 248 kts 208°
2026-04-26 07:27 -39.91016 175.88699 18138 ft 248 kts 208°
2026-04-26 07:27 -39.92562 175.87766 18137 ft 248 kts 208°
2026-04-26 07:27 -39.94132 175.86819 18132 ft 248 kts 208°
2026-04-26 07:28 -39.95698 175.85871 18135 ft 248 kts 208°
2026-04-26 07:28 -39.97264 175.84926 18138 ft 248 kts 208°
2026-04-26 07:28 -39.98827 175.83979 18138 ft 248 kts 208°
2026-04-26 07:28 -40.00371 175.83046 18132 ft 248 kts 208°
2026-04-26 07:29 -40.01934 175.82098 18134 ft 248 kts 208°
2026-04-26 07:29 -40.03497 175.81153 18131 ft 247 kts 208°
2026-04-26 07:29 -40.05057 175.80207 18136 ft 247 kts 208°
2026-04-26 07:29 -40.06617 175.79261 18130 ft 247 kts 208°
2026-04-26 07:30 -40.08176 175.78315 18130 ft 247 kts 208°
2026-04-26 07:30 -40.09735 175.77369 18128 ft 247 kts 208°
2026-04-26 07:30 -40.11291 175.76425 18123 ft 247 kts 208°
2026-04-26 07:30 -40.12662 175.75591 18127 ft 247 kts 208°
2026-04-26 07:31 -40.14216 175.74645 18121 ft 247 kts 208°
2026-04-26 07:31 -40.15773 175.73700 18122 ft 247 kts 208°
2026-04-26 07:31 -40.17329 175.72752 18122 ft 247 kts 208°
2026-04-26 07:31 -40.18885 175.71806 18123 ft 247 kts 208°
2026-04-26 07:32 -40.20443 175.70856 18121 ft 247 kts 208°
2026-04-26 07:32 -40.21999 175.69908 18114 ft 247 kts 208°
2026-04-26 07:32 -40.23552 175.68961 18122 ft 246 kts 208°
2026-04-26 07:32 -40.25107 175.68012 18121 ft 246 kts 208°
2026-04-26 07:33 -40.26658 175.67065 18118 ft 246 kts 208°
2026-04-26 07:33 -40.28213 175.66116 18118 ft 246 kts 209°
2026-04-26 07:33 -40.29766 175.65167 18120 ft 246 kts 208°
2026-04-26 07:33 -40.31319 175.64218 18117 ft 246 kts 209°
2026-04-26 07:34 -40.32888 175.63332 18116 ft 246 kts 206°
2026-04-26 07:34 -40.34459 175.62455 18118 ft 245 kts 208°
2026-04-26 07:34 -40.36016 175.61542 18118 ft 245 kts 208°
2026-04-26 07:34 -40.37582 175.60656 18116 ft 245 kts 207°
2026-04-26 07:35 -40.39152 175.59778 18121 ft 245 kts 207°
2026-04-26 07:35 -40.40701 175.58907 18120 ft 245 kts 207°
2026-04-26 07:35 -40.42267 175.58025 18121 ft 245 kts 207°
2026-04-26 07:35 -40.43835 175.57141 18115 ft 245 kts 207°
2026-04-26 07:36 -40.45402 175.56257 18121 ft 245 kts 207°
2026-04-26 07:36 -40.46966 175.55375 18126 ft 245 kts 207°
2026-04-26 07:36 -40.48528 175.54494 18127 ft 244 kts 207°
2026-04-26 07:36 -40.50072 175.53621 18122 ft 245 kts 207°
2026-04-26 07:37 -40.51636 175.52736 18123 ft 244 kts 207°
2026-04-26 07:37 -40.53196 175.51856 18125 ft 244 kts 208°
2026-04-26 07:37 -40.54752 175.50975 18126 ft 243 kts 208°
2026-04-26 07:37 -40.56305 175.50096 18125 ft 243 kts 208°
2026-04-26 07:38 -40.57857 175.49219 18123 ft 243 kts 208°
2026-04-26 07:38 -40.59409 175.48339 18125 ft 243 kts 208°
2026-04-26 07:38 -40.60957 175.47461 18125 ft 242 kts 208°
2026-04-26 07:38 -40.62505 175.46583 18123 ft 242 kts 208°
2026-04-26 07:39 -40.64051 175.45705 18125 ft 242 kts 208°
2026-04-26 07:39 -40.65596 175.44830 18125 ft 242 kts 208°
2026-04-26 07:39 -40.67142 175.43953 18118 ft 243 kts 208°
2026-04-26 07:39 -40.68694 175.43068 18126 ft 243 kts 208°
2026-04-26 07:40 -40.70246 175.42187 18117 ft 242 kts 208°
2026-04-26 07:40 -40.71489 175.41481 18114 ft 241 kts 208°
2026-04-26 07:40 -40.73032 175.40602 18108 ft 242 kts 208°
2026-04-26 07:41 -40.74577 175.39723 18052 ft 244 kts 208°
2026-04-26 07:41 -40.76153 175.38821 17790 ft 249 kts 208°
2026-04-26 07:41 -40.77759 175.37905 17528 ft 253 kts 208°
2026-04-26 07:41 -40.79386 175.36981 17272 ft 256 kts 208°
2026-04-26 07:42 -40.81026 175.36047 17017 ft 256 kts 208°
2026-04-26 07:42 -40.82654 175.35122 16764 ft 254 kts 207°
2026-04-26 07:42 -40.84271 175.34197 16508 ft 253 kts 208°
2026-04-26 07:42 -40.85883 175.33275 16259 ft 252 kts 207°
2026-04-26 07:43 -40.87494 175.32358 15965 ft 253 kts 208°
2026-04-26 07:43 -40.89120 175.31428 15640 ft 255 kts 207°
2026-04-26 07:43 -40.90748 175.30496 15328 ft 255 kts 207°
2026-04-26 07:43 -40.92382 175.29562 15005 ft 255 kts 207°
2026-04-26 07:44 -40.94014 175.28629 14701 ft 256 kts 207°
2026-04-26 07:44 -40.95653 175.27692 14397 ft 257 kts 207°
2026-04-26 07:44 -40.97297 175.26746 14090 ft 258 kts 207°
2026-04-26 07:44 -40.98947 175.25797 13776 ft 259 kts 207°
2026-04-26 07:45 -41.00596 175.24847 13425 ft 257 kts 207°
2026-04-26 07:45 -41.02234 175.23906 13033 ft 256 kts 207°
2026-04-26 07:45 -41.03867 175.22964 12643 ft 256 kts 207°
2026-04-26 07:45 -41.05497 175.22018 12268 ft 255 kts 207°
2026-04-26 07:46 -41.07030 175.20861 11883 ft 254 kts 213°
2026-04-26 07:46 -41.08542 175.19641 11510 ft 255 kts 213°
2026-04-26 07:46 -41.10064 175.18422 11143 ft 256 kts 213°
2026-04-26 07:46 -41.11584 175.17189 10781 ft 257 kts 213°
2026-04-26 07:47 -41.13116 175.15965 10422 ft 258 kts 211°
2026-04-26 07:47 -41.14679 175.14788 10062 ft 259 kts 211°
2026-04-26 07:47 -41.16234 175.13573 9673 ft 260 kts 212°
2026-04-26 07:47 -41.17781 175.12332 9283 ft 260 kts 211°
2026-04-26 07:48 -41.19327 175.11101 8893 ft 259 kts 211°
2026-04-26 07:48 -41.20864 175.09883 8610 ft 255 kts 211°
2026-04-26 07:48 -41.22370 175.08686 8357 ft 251 kts 211°
2026-04-26 07:48 -41.23857 175.07505 8105 ft 248 kts 210°
2026-04-26 07:49 -41.25319 175.06342 7984 ft 242 kts 210°
2026-04-26 07:49 -41.26764 175.05193 7731 ft 242 kts 210°
2026-04-26 07:49 -41.28212 175.04039 7459 ft 243 kts 210°
2026-04-26 07:50 -41.31121 175.01686 6826 ft 244 kts 213°
2026-04-26 07:50 -41.32519 175.00408 6513 ft 244 kts 212°
2026-04-26 07:50 -41.33923 174.99199 6183 ft 243 kts 211°
2026-04-26 07:50 -41.35319 174.97976 6013 ft 235 kts 213°
2026-04-26 07:51 -41.36649 174.96786 6015 ft 226 kts 212°
2026-04-26 07:51 -41.37947 174.95634 5899 ft 226 kts 212°
2026-04-26 07:51 -41.39274 174.94457 5644 ft 231 kts 212°
2026-04-26 07:51 -41.40623 174.93258 5397 ft 234 kts 212°
2026-04-26 07:52 -41.41983 174.92051 5145 ft 235 kts 212°
2026-04-26 07:52 -41.43444 174.91144 5015 ft 230 kts 192°
2026-04-26 07:52 -41.45014 174.90972 5008 ft 224 kts 181°
2026-04-26 07:52 -41.46576 174.90904 4844 ft 228 kts 182°
2026-04-26 07:53 -41.48139 174.90526 4575 ft 232 kts 201°
2026-04-26 07:53 -41.49465 174.89293 4305 ft 238 kts 226°
2026-04-26 07:53 -41.50297 174.87383 4034 ft 242 kts 251°
2026-04-26 07:53 -41.50463 174.85150 3780 ft 245 kts 275°
2026-04-26 07:54 -41.50113 174.82927 3529 ft 245 kts 282°
2026-04-26 07:54 -41.49846 174.80688 3279 ft 245 kts 274°
2026-04-26 07:54 -41.49851 174.78427 3023 ft 244 kts 262°
2026-04-26 07:54 -41.50214 174.76229 2777 ft 242 kts 255°
2026-04-26 07:55 -41.50639 174.74068 2519 ft 239 kts 253°
2026-04-26 07:55 -41.51437 174.72148 2246 ft 238 kts 229°
2026-04-26 07:55 -41.52762 174.70859 2022 ft 236 kts 204°
2026-04-26 07:55 -41.54328 174.70473 2011 ft 230 kts 179°
2026-04-26 07:56 -41.55841 174.71026 2010 ft 226 kts 153°
2026-04-26 07:56 -41.57050 174.72343 2011 ft 225 kts 133°
2026-04-26 07:56 -41.57880 174.74098 2007 ft 225 kts 113°
2026-04-26 07:56 -41.58208 174.76125 2013 ft 224 kts 92°
2026-04-26 07:57 -41.57965 174.78174 2012 ft 225 kts 70°
2026-04-26 07:57 -41.57173 174.79952 2012 ft 224 kts 48°
2026-04-26 07:57 -41.55944 174.81196 2011 ft 222 kts 25°
2026-04-26 07:57 -41.54464 174.81721 2004 ft 221 kts
2026-04-26 07:58 -41.52957 174.81461 2005 ft 219 kts 340°
2026-04-26 07:58 -41.51582 174.80620 2006 ft 216 kts 333°
2026-04-26 07:58 -41.50410 174.79883 2016 ft 164 kts 334°
2026-04-26 07:58 -41.49458 174.79222 2005 ft 147 kts 321°
2026-04-26 07:59 -41.48878 174.78167 2004 ft 138 kts 301°
2026-04-26 07:59 -41.48147 174.77402 2003 ft 139 kts 341°
2026-04-26 07:59 -41.47199 174.77501 2003 ft 141 kts 24°
2026-04-26 07:59 -41.46473 174.78360 2014 ft 140 kts 46°
2026-04-26 08:00 -41.45674 174.79071 2012 ft 139 kts 19°
2026-04-26 08:00 -41.44749 174.79463 2015 ft 140 kts 15°
2026-04-26 08:00 -41.43819 174.79848 2015 ft 140 kts 15°
2026-04-26 08:00 -41.42865 174.80021 2014 ft 139 kts 360°
2026-04-26 08:01 -41.41897 174.80053 2013 ft 139 kts
2026-04-26 08:01 -41.40921 174.80090 1922 ft 141 kts
2026-04-26 08:01 -41.39955 174.80128 1730 ft 137 kts
2026-04-26 08:01 -41.39003 174.80168 1538 ft 137 kts
2026-04-26 08:02 -41.38069 174.80209 1291 ft 133 kts
2026-04-26 08:02 -41.37134 174.80248 914 ft 135 kts
2026-04-26 08:02 -41.36198 174.80285 570 ft 133 kts
2026-04-26 08:02 -41.35329 174.80421 463 ft 122 kts 12°
2026-04-26 08:03 -41.34476 174.80544 268 ft 118 kts
2026-04-26 08:03 -41.33672 174.80619 92 ft 116 kts
2026-04-26 08:03 -41.32968 174.80677 23 ft 79 kts 11°
2026-04-26 08:03 -41.32691 174.80691 23 ft 20 kts
2026-04-26 08:04 -41.32592 174.80695 25 ft 7 kts
2026-04-26 08:04 -41.32523 174.80700 27 ft 12 kts
2026-04-26 08:04 -41.32437 174.80708 30 ft 12 kts
2026-04-26 08:04 -41.32411 174.80788 31 ft 0 kts 92°
2026-04-26 08:05 -41.32411 174.80792 31 ft 2 kts 91°
2026-04-26 08:05 -41.32431 174.80829 31 ft 9 kts 165°
2026-04-26 08:05 -41.32527 174.80828 27 ft 17 kts 182°
2026-04-26 08:06 -41.32618 174.80822 24 ft 15 kts 183°
2026-04-26 08:06 -41.32684 174.80819 24 ft 9 kts 180°
2026-04-26 08:06 -41.32769 174.80812 25 ft 15 kts 182°
2026-04-26 08:06 -41.32872 174.80805 24 ft 5 kts 182°
2026-04-26 08:07 -41.32931 174.80801 23 ft 12 kts 182°
2026-04-26 08:07 -41.33016 174.80795 24 ft 10 kts 183°
2026-04-26 08:07 -41.33092 174.80805 25 ft 11 kts 134°
2026-04-26 08:07 -41.33106 174.80910 23 ft 5 kts 94°
2026-04-26 08:08 -41.33119 174.80980 23 ft 11 kts 119°
2026-04-26 08:08 -41.33140 174.81034 23 ft 5 kts 116°
2026-04-26 08:08 -41.33142 174.81039 23 ft 0 kts 112°